| time (UTC) | temp F | wind direction | speed MPH | gust MPH | rain 1hr in | rain 24hr in | rain mn in | humidity % | barometer mb |
| 20260507182104 | 56 | 203 | 3.0 | 8.0 | 0.00 | 0.40 | 0.35 | 73 | 1007.1 |
| 20260507181558 | 56 | 160 | 2.0 | 8.0 | 0.00 | 0.40 | 0.35 | 73 | 1007.1 |
| 20260507181051 | 56 | 151 | 4.0 | 7.0 | 0.00 | 0.40 | 0.35 | 74 | 1007.1 |
| 20260507180551 | 56 | 184 | 2.0 | 6.0 | 0.00 | 0.40 | 0.35 | 74 | 1007.2 |
| 20260507180045 | 55 | 139 | 2.0 | 7.0 | 0.00 | 0.40 | 0.35 | 74 | 1007.1 |
| 20260507175548 | 55 | 172 | 3.0 | 7.0 | 0.00 | 0.40 | 0.35 | 74 | 1007.0 |
| 20260507175318 | 56 | 169 | 2.0 | 6.0 | 0.00 | 0.40 | 0.35 | 72 | 1007.2 |
| 20260507175314 | 55 | 212 | 2.0 | 7.0 | 0.00 | 0.40 | 0.35 | 73 | 1007.1 |
| 20260507174032 | 57 | 110 | 4.0 | 6.0 | 0.00 | 0.40 | 0.35 | 71 | 1007.2 |
| 20260507173532 | 57 | 180 | 3.0 | 7.0 | 0.00 | 0.40 | 0.35 | 73 | 1007.1 |
| 20260507173019 | 56 | 182 | 2.0 | 8.0 | 0.00 | 0.40 | 0.35 | 72 | 1007.1 |
| 20260507172518 | 56 | 110 | 4.0 | 8.0 | 0.00 | 0.40 | 0.35 | 73 | 1007.3 |
| 20260507172013 | 56 | 158 | 2.0 | 5.0 | 0.00 | 0.40 | 0.35 | 72 | 1007.3 |
| 20260507171514 | 55 | 142 | 3.0 | 5.0 | 0.00 | 0.40 | 0.35 | 72 | 1007.5 |
| 20260507171009 | 55 | 137 | 2.0 | 5.0 | 0.00 | 0.40 | 0.35 | 72 | 1007.6 |
| 20260507170508 | 56 | 130 | 2.0 | 5.0 | 0.00 | 0.40 | 0.35 | 70 | 1007.6 |
| 20260507170005 | 56 | 126 | 2.0 | 4.0 | 0.00 | 0.40 | 0.35 | 69 | 1007.7 |
| 20260507165730 | 57 | 114 | 2.0 | 4.0 | 0.00 | 0.40 | 0.35 | 67 | 1007.7 |
| 20260507164946 | 57 | 126 | 2.0 | 5.0 | 0.00 | 0.40 | 0.35 | 66 | 1007.7 |
| 20260507164445 | 58 | 122 | 2.0 | 5.0 | 0.00 | 0.40 | 0.35 | 66 | 1007.7 |
| 20260507163940 | 58 | 148 | 2.0 | 5.0 | 0.00 | 0.40 | 0.35 | 70 | 1007.9 |
| 20260507163434 | 58 | 139 | 1.0 | 5.0 | 0.00 | 0.40 | 0.35 | 69 | 1007.9 |
| 20260507162932 | 58 | 110 | 3.0 | 5.0 | 0.00 | 0.40 | 0.35 | 67 | 1007.9 |
| 20260507162425 | 57 | 105 | 2.0 | 5.0 | 0.00 | 0.40 | 0.35 | 70 | 1007.9 |
| 20260507161930 | 56 | 84 | 2.0 | 5.0 | 0.00 | 0.40 | 0.35 | 71 | 1008.2 |
| 20260507161926 | 57 | 85 | 3.0 | 5.0 | 0.00 | 0.40 | 0.35 | 68 | 1008.0 |
| 20260507160912 | 56 | 101 | 2.0 | 7.0 | 0.00 | 0.40 | 0.35 | 69 | 1008.2 |
| 20260507160407 | 56 | 77 | 4.0 | 7.0 | 0.00 | 0.40 | 0.35 | 69 | 1008.2 |
| 20260507155900 | 56 | 51 | 2.0 | 6.0 | 0.00 | 0.40 | 0.35 | 69 | 1008.3 |
| 20260507155401 | 56 | 63 | 3.0 | 9.0 | 0.00 | 0.40 | 0.35 | 66 | 1008.5 |
| 20260507154857 | 56 | 76 | 6.0 | 12.0 | 0.00 | 0.40 | 0.35 | 66 | 1008.5 |
| 20260507154358 | 57 | 71 | 6.0 | 12.0 | 0.00 | 0.40 | 0.35 | 66 | 1008.4 |
| 20260507153851 | 58 | 83 | 6.0 | 10.0 | 0.00 | 0.40 | 0.35 | 65 | 1008.5 |
| 20260507153351 | 58 | 61 | 4.0 | 10.0 | 0.00 | 0.40 | 0.35 | 65 | 1008.5 |
| 20260507152847 | 58 | 55 | 5.0 | 9.0 | 0.00 | 0.40 | 0.35 | 62 | 1008.6 |
| 20260507152624 | 59 | 45 | 4.0 | 7.0 | 0.00 | 0.40 | 0.35 | 64 | 1008.6 |
| 20260507152119 | 59 | 68 | 2.0 | 10.0 | 0.00 | 0.40 | 0.35 | 64 | 1008.6 |
| 20260507151335 | 59 | 72 | 5.0 | 10.0 | 0.00 | 0.40 | 0.35 | 61 | 1008.8 |
| 20260507150829 | 59 | 74 | 6.0 | 10.0 | 0.00 | 0.40 | 0.35 | 62 | 1009.0 |
| 20260507150322 | 59 | 75 | 6.0 | 10.0 | 0.00 | 0.40 | 0.35 | 61 | 1008.9 |
| 20260507145818 | 59 | 29 | 5.0 | 10.0 | 0.00 | 0.40 | 0.35 | 63 | 1008.9 |
| 20260507145319 | 59 | 50 | 6.0 | 10.0 | 0.00 | 0.40 | 0.35 | 60 | 1008.8 |
| 20260507144827 | 59 | 359 | 6.0 | 9.0 | 0.00 | 0.40 | 0.35 | 60 | 1008.9 |
| 20260507144822 | 59 | 342 | 6.0 | 9.0 | 0.00 | 0.40 | 0.35 | 57 | 1008.8 |
| 20260507143809 | 59 | 343 | 3.0 | 10.0 | 0.00 | 0.40 | 0.35 | 60 | 1008.8 |
| 20260507143304 | 58 | 1 | 4.0 | 10.0 | 0.00 | 0.40 | 0.35 | 62 | 1008.9 |
| 20260507142756 | 58 | 37 | 3.0 | 12.0 | 0.00 | 0.40 | 0.35 | 66 | 1008.9 |
| 20260507142528 | 58 | 72 | 6.0 | 12.0 | 0.00 | 0.40 | 0.35 | 62 | 1009.1 |
| 20260507141747 | 58 | 33 | 5.0 | 11.0 | 0.00 | 0.40 | 0.35 | 63 | 1009.1 |
| 20260507141519 | 58 | 30 | 3.0 | 8.0 | 0.00 | 0.40 | 0.35 | 68 | 1009.2 |
| 20260507140740 | 57 | 359 | 5.0 | 11.0 | 0.00 | 0.40 | 0.35 | 66 | 1009.0 |
| 20260507140242 | 57 | 346 | 4.0 | 11.0 | 0.00 | 0.40 | 0.35 | 68 | 1009.0 |
| 20260507135737 | 57 | 41 | 5.0 | 10.0 | 0.00 | 0.40 | 0.35 | 68 | 1009.0 |
| 20260507135232 | 56 | 65 | 4.0 | 10.0 | 0.00 | 0.40 | 0.35 | 71 | 1009.1 |
| 20260507134723 | 56 | 357 | 4.0 | 11.0 | 0.00 | 0.40 | 0.35 | 73 | 1009.2 |
| 20260507134219 | 56 | 317 | 5.0 | 11.0 | 0.00 | 0.40 | 0.35 | 74 | 1009.1 |
| 20260507133946 | 55 | 326 | 4.0 | 10.0 | 0.00 | 0.40 | 0.35 | 77 | 1009.0 |
| 20260507133208 | 55 | 1 | 4.0 | 10.0 | 0.00 | 0.40 | 0.35 | 79 | 1009.0 |
| 20260507132703 | 54 | 41 | 3.0 | 10.0 | 0.00 | 0.40 | 0.35 | 81 | 1009.0 |
| 20260507132159 | 54 | 323 | 6.0 | 10.0 | 0.00 | 0.40 | 0.35 | 84 | 1009.2 |
| 20260507131928 | 53 | 302 | 4.0 | 10.0 | 0.00 | 0.40 | 0.35 | 87 | 1009.2 |
| 20260507131201 | 52 | 11 | 2.0 | 7.0 | 0.00 | 0.40 | 0.35 | 89 | 1009.1 |
| 20260507131157 | 53 | 37 | 4.0 | 8.0 | 0.00 | 0.40 | 0.35 | 88 | 1009.1 |
| 20260507130141 | 52 | 359 | 2.0 | 7.0 | 0.00 | 0.40 | 0.35 | 89 | 1009.2 |
| 20260507125635 | 52 | 353 | 3.0 | 6.0 | 0.00 | 0.40 | 0.35 | 90 | 1009.2 |
| 20260507125129 | 52 | 332 | 2.0 | 6.0 | 0.00 | 0.40 | 0.35 | 90 | 1009.3 |
| 20260507124637 | 51 | 317 | 2.0 | 6.0 | 0.00 | 0.40 | 0.35 | 90 | 1009.4 |
| 20260507124632 | 51 | 328 | 2.0 | 6.0 | 0.00 | 0.40 | 0.35 | 90 | 1009.2 |
| 20260507123619 | 51 | 312 | 2.0 | 6.0 | 0.01 | 0.40 | 0.35 | 90 | 1009.4 |
| 20260507123115 | 51 | 259 | 2.0 | 6.0 | 0.01 | 0.40 | 0.35 | 90 | 1009.5 |
| 20260507122606 | 51 | 294 | 2.0 | 5.0 | 0.02 | 0.40 | 0.35 | 90 | 1009.4 |
| 20260507122107 | 50 | 316 | 1.0 | 4.0 | 0.04 | 0.40 | 0.35 | 90 | 1009.1 |
| 20260507121837 | 50 | 316 | 1.0 | 4.0 | 0.05 | 0.40 | 0.35 | 90 | 1009.1 |
| 20260507121057 | 49 | 323 | 1.0 | 4.0 | 0.05 | 0.40 | 0.35 | 90 | 1008.9 |
| 20260507120553 | 49 | 342 | 2.0 | 4.0 | 0.05 | 0.40 | 0.35 | 90 | 1009.0 |
| 20260507120038 | 49 | 342 | 0.0 | 3.0 | 0.05 | 0.40 | 0.35 | 90 | 1009.1 |
| 20260507115540 | 49 | 342 | 0.0 | 2.0 | 0.05 | 0.40 | 0.35 | 90 | 1009.0 |
| 20260507115032 | 48 | 342 | 0.0 | 2.0 | 0.05 | 0.40 | 0.35 | 90 | 1009.0 |
| 20260507114529 | 49 | 342 | 1.0 | 3.0 | 0.05 | 0.40 | 0.35 | 89 | 1009.2 |
| 20260507114021 | 49 | 342 | 1.0 | 4.0 | 0.05 | 0.40 | 0.35 | 89 | 1009.1 |
| 20260507113537 | 49 | 346 | 2.0 | 4.0 | 0.04 | 0.38 | 0.33 | 89 | 1008.7 |
| 20260507113527 | 49 | 342 | 2.0 | 4.0 | 0.04 | 0.39 | 0.34 | 89 | 1008.6 |
| 20260507112505 | 49 | 345 | 1.0 | 4.0 | 0.03 | 0.37 | 0.32 | 89 | 1009.1 |
| 20260507111953 | 49 | 323 | 0.0 | 5.0 | 0.02 | 0.36 | 0.31 | 89 | 1009.0 |
| 20260507111726 | 49 | 311 | 2.0 | 6.0 | 0.02 | 0.35 | 0.30 | 89 | 1009.4 |
| 20260507110942 | 49 | 330 | 2.0 | 7.0 | 0.02 | 0.35 | 0.30 | 89 | 1009.1 |
| 20260507110436 | 49 | 7 | 4.0 | 7.0 | 0.03 | 0.35 | 0.30 | 89 | 1008.7 |
| 20260507105936 | 49 | 346 | 2.0 | 6.0 | 0.03 | 0.35 | 0.30 | 89 | 1008.6 |
| 20260507105433 | 49 | 8 | 1.0 | 5.0 | 0.03 | 0.35 | 0.30 | 89 | 1008.7 |
| 20260507104928 | 49 | 359 | 2.0 | 6.0 | 0.03 | 0.35 | 0.30 | 89 | 1008.8 |
| 20260507104421 | 49 | 3 | 2.0 | 6.0 | 0.03 | 0.35 | 0.30 | 89 | 1008.8 |
| 20260507103920 | 49 | 345 | 3.0 | 6.0 | 0.03 | 0.35 | 0.30 | 89 | 1009.1 |
| 20260507103416 | 49 | 357 | 3.0 | 8.0 | 0.04 | 0.35 | 0.30 | 89 | 1008.9 |
| 20260507102909 | 49 | 322 | 4.0 | 8.0 | 0.03 | 0.34 | 0.29 | 90 | 1009.3 |
| 20260507102404 | 49 | 0 | 3.0 | 7.0 | 0.03 | 0.34 | 0.29 | 90 | 1009.3 |
| 20260507101905 | 50 | 283 | 3.0 | 9.0 | 0.03 | 0.34 | 0.29 | 90 | 1008.8 |
| 20260507101400 | 50 | 36 | 4.0 | 11.0 | 0.02 | 0.33 | 0.28 | 90 | 1008.7 |
| 20260507100852 | 51 | 335 | 6.0 | 11.0 | 0.02 | 0.33 | 0.28 | 90 | 1008.6 |
| 20260507100626 | 51 | 333 | 2.0 | 7.0 | 0.02 | 0.32 | 0.27 | 91 | 1008.6 |
| 20260507095843 | 51 | 339 | 4.0 | 7.0 | 0.02 | 0.32 | 0.27 | 90 | 1008.7 |
| 20260507095340 | 51 | 335 | 1.0 | 6.0 | 0.02 | 0.32 | 0.27 | 90 | 1008.3 |
| 20260507095103 | 51 | 323 | 1.0 | 6.0 | 0.03 | 0.32 | 0.27 | 90 | 1008.3 |
| 20260507094607 | 52 | 314 | 2.0 | 6.0 | 0.03 | 0.32 | 0.27 | 91 | 1008.6 |
| 20260507093827 | 52 | 337 | 2.0 | 6.0 | 0.03 | 0.31 | 0.27 | 90 | 1008.4 |
| 20260507093328 | 52 | 330 | 3.0 | 6.0 | 0.04 | 0.31 | 0.26 | 90 | 1008.3 |
| 20260507092822 | 52 | 300 | 3.0 | 9.0 | 0.06 | 0.31 | 0.26 | 90 | 1008.5 |
| 20260507092547 | 52 | 325 | 3.0 | 9.0 | 0.09 | 0.31 | 0.26 | 90 | 1008.4 |
| 20260507091810 | 52 | 359 | 3.0 | 8.0 | 0.11 | 0.31 | 0.26 | 90 | 1008.3 |
| 20260507091313 | 52 | 47 | 4.0 | 8.0 | 0.12 | 0.31 | 0.26 | 90 | 1008.0 |
| 20260507090805 | 52 | 359 | 2.0 | 6.0 | 0.13 | 0.31 | 0.26 | 90 | 1007.9 |
| 20260507090300 | 52 | 321 | 2.0 | 7.0 | 0.13 | 0.30 | 0.25 | 90 | 1008.0 |
| 20260507085754 | 52 | 326 | 3.0 | 7.0 | 0.19 | 0.30 | 0.25 | 90 | 1008.0 |
| 20260507085256 | 52 | 314 | 3.0 | 7.0 | 0.22 | 0.30 | 0.25 | 89 | 1007.9 |
| 20260507084750 | 52 | 13 | 2.0 | 7.0 | 0.24 | 0.29 | 0.24 | 89 | 1008.0 |
| 20260507084250 | 52 | 49 | 2.0 | 4.0 | 0.24 | 0.29 | 0.24 | 89 | 1008.0 |
| 20260507083743 | 52 | 48 | 2.0 | 6.0 | 0.23 | 0.28 | 0.23 | 89 | 1007.8 |
| 20260507083237 | 53 | 359 | 2.0 | 9.0 | 0.22 | 0.27 | 0.22 | 89 | 1007.9 |
| 20260507082733 | 53 | 339 | 4.0 | 9.0 | 0.20 | 0.25 | 0.20 | 88 | 1008.0 |
| 20260507082226 | 53 | 359 | 3.0 | 8.0 | 0.17 | 0.22 | 0.17 | 88 | 1007.9 |
| 20260507081719 | 54 | 354 | 3.0 | 8.0 | 0.15 | 0.20 | 0.15 | 88 | 1008.1 |
| 20260507081216 | 54 | 1 | 4.0 | 7.0 | 0.14 | 0.19 | 0.14 | 88 | 1008.2 |
| 20260507080950 | 55 | 0 | 1.0 | 7.0 | 0.13 | 0.18 | 0.13 | 88 | 1007.8 |
| 20260507080209 | 55 | 18 | 2.0 | 8.0 | 0.12 | 0.17 | 0.12 | 88 | 1007.8 |
| 20260507075951 | 56 | 58 | 4.0 | 8.0 | 0.06 | 0.11 | 0.06 | 87 | 1007.9 |
| 20260507075158 | 56 | 297 | 4.0 | 10.0 | 0.02 | 0.07 | 0.03 | 87 | 1007.8 |
| 20260507074652 | 56 | 40 | 4.0 | 10.0 | 0.00 | 0.05 | 0.00 | 88 | 1007.4 |
| 20260507074146 | 56 | 40 | 3.0 | 8.0 | 0.00 | 0.05 | 0.00 | 89 | 1006.7 |
| 20260507073642 | 56 | 26 | 3.0 | 6.0 | 0.00 | 0.05 | 0.00 | 89 | 1006.6 |
| 20260507073410 | 56 | 29 | 1.0 | 5.0 | 0.00 | 0.05 | 0.00 | 90 | 1006.6 |
| 20260507072635 | 56 | 334 | 3.0 | 5.0 | 0.00 | 0.05 | 0.00 | 90 | 1006.7 |
| 20260507072129 | 56 | 350 | 1.0 | 5.0 | 0.00 | 0.05 | 0.00 | 90 | 1006.7 |
| 20260507071857 | 57 | 34 | 3.0 | 5.0 | 0.00 | 0.05 | 0.00 | 91 | 1006.6 |
| 20260507071125 | 57 | 50 | 2.0 | 4.0 | 0.00 | 0.05 | 0.00 | 91 | 1006.8 |
| 20260507070621 | 57 | 50 | 1.0 | 4.0 | 0.00 | 0.05 | 0.00 | 91 | 1006.8 |
| 20260507070114 | 57 | 51 | 1.0 | 6.0 | 0.00 | 0.05 | 0.00 | 91 | 1006.6 |
| 20260507065611 | 58 | 51 | 1.0 | 6.0 | 0.00 | 0.05 | 0.00 | 91 | 1006.4 |
| 20260507065104 | 58 | 248 | 0.0 | 3.0 | 0.00 | 0.05 | 0.00 | 91 | 1006.5 |
| 20260507064600 | 58 | 232 | 0.0 | 0.0 | 0.00 | 0.05 | 0.00 | 91 | 1006.6 |
| 20260507064100 | 58 | 232 | 0.0 | 0.0 | 0.00 | 0.05 | 0.00 | 91 | 1006.7 |
| 20260507063554 | 58 | 232 | 0.0 | 0.0 | 0.00 | 0.05 | 0.00 | 91 | 1006.7 |
| 20260507063318 | 58 | 232 | 0.0 | 0.0 | 0.00 | 0.05 | 0.00 | 91 | 1006.7 |
| 20260507062543 | 58 | 232 | 0.0 | 0.0 | 0.00 | 0.05 | 0.00 | 91 | 1006.8 |
| 20260507062044 | 58 | 232 | 0.0 | 2.0 | 0.00 | 0.05 | 0.00 | 91 | 1006.9 |
| 20260507061550 | 58 | 232 | 0.0 | 0.0 | 0.00 | 0.05 | 0.00 | 91 | 1007.0 |
| 20260507061543 | 58 | 232 | 0.0 | 2.0 | 0.00 | 0.05 | 0.00 | 91 | 1006.8 |
| 20260507060531 | 58 | 232 | 0.0 | 0.0 | 0.00 | 0.05 | 0.00 | 91 | 1007.1 |
| 20260507060027 | 58 | 232 | 0.0 | 0.0 | 0.00 | 0.05 | 0.00 | 91 | 1007.2 |
| 20260507055513 | 58 | 232 | 0.0 | 0.0 | 0.00 | 0.05 | 0.00 | 91 | 1006.9 |
| 20260507055009 | 58 | 232 | 0.0 | 4.0 | 0.00 | 0.05 | 0.00 | 91 | 1007.0 |
| 20260507054456 | 58 | 232 | 1.0 | 4.0 | 0.00 | 0.05 | 0.00 | 91 | 1007.0 |
| 20260507054223 | 58 | 230 | 2.0 | 4.0 | 0.00 | 0.05 | 0.00 | 91 | 1007.2 |
| 20260507053451 | 58 | 230 | 1.0 | 3.0 | 0.00 | 0.05 | 0.00 | 91 | 1007.2 |
| 20260507052938 | 58 | 230 | 2.0 | 3.0 | 0.00 | 0.05 | 0.00 | 91 | 1007.0 |
| 20260507052430 | 58 | 230 | 1.0 | 3.0 | 0.00 | 0.05 | 0.00 | 91 | 1007.1 |
| 20260507051925 | 58 | 225 | 2.0 | 4.0 | 0.00 | 0.05 | 0.00 | 91 | 1007.3 |
| 20260507051420 | 58 | 271 | 2.0 | 4.0 | 0.00 | 0.05 | 0.00 | 91 | 1007.4 |
| 20260507050915 | 58 | 274 | 2.0 | 4.0 | 0.00 | 0.05 | 0.00 | 91 | 1007.4 |
| 20260507050407 | 58 | 256 | 2.0 | 4.0 | 0.00 | 0.05 | 0.00 | 91 | 1007.4 |
| 20260507045909 | 58 | 244 | 2.0 | 5.0 | 0.00 | 0.05 | 0.00 | 91 | 1007.5 |
| 20260507045405 | 58 | 243 | 3.0 | 5.0 | 0.00 | 0.05 | 0.00 | 91 | 1007.3 |
| 20260507044859 | 58 | 245 | 2.0 | 5.0 | 0.00 | 0.05 | 0.00 | 91 | 1007.3 |
| 20260507044351 | 58 | 254 | 2.0 | 5.0 | 0.00 | 0.05 | 0.00 | 91 | 1007.3 |
| 20260507044126 | 58 | 271 | 2.0 | 5.0 | 0.00 | 0.05 | 0.00 | 91 | 1007.2 |
| 20260507043346 | 58 | 316 | 3.0 | 5.0 | 0.00 | 0.05 | 0.00 | 91 | 1007.2 |
| 20260507043113 | 58 | 259 | 2.0 | 4.0 | 0.00 | 0.05 | 0.00 | 91 | 1007.2 |
| 20260507042343 | 58 | 256 | 2.0 | 7.0 | 0.00 | 0.05 | 0.00 | 91 | 1007.2 |
| 20260507041837 | 58 | 260 | 2.0 | 7.0 | 0.00 | 0.05 | 0.00 | 91 | 1007.2 |
| 20260507041338 | 58 | 241 | 2.0 | 6.0 | 0.00 | 0.05 | 0.00 | 91 | 1007.2 |
| 20260507040833 | 58 | 241 | 3.0 | 6.0 | 0.00 | 0.05 | 0.00 | 91 | 1007.2 |
| 20260507040324 | 58 | 238 | 3.0 | 6.0 | 0.00 | 0.05 | 0.00 | 91 | 1007.2 |
| 20260507035819 | 58 | 250 | 3.0 | 6.0 | 0.00 | 0.05 | 0.05 | 91 | 1007.4 |
| 20260507035322 | 58 | 233 | 3.0 | 8.0 | 0.00 | 0.05 | 0.05 | 91 | 1007.6 |
| 20260507035318 | 58 | 246 | 3.0 | 8.0 | 0.00 | 0.05 | 0.05 | 91 | 1007.5 |
| 20260507034316 | 57 | 255 | 3.0 | 7.0 | 0.00 | 0.05 | 0.05 | 91 | 1007.5 |
| 20260507034310 | 58 | 240 | 4.0 | 6.0 | 0.00 | 0.05 | 0.05 | 91 | 1007.6 |
| 20260507033302 | 57 | 262 | 4.0 | 7.0 | 0.00 | 0.05 | 0.05 | 91 | 1007.3 |
| 20260507032801 | 57 | 248 | 4.0 | 7.0 | 0.00 | 0.05 | 0.05 | 91 | 1007.4 |
| 20260507032259 | 57 | 280 | 3.0 | 7.0 | 0.00 | 0.05 | 0.05 | 91 | 1007.5 |
| 20260507031754 | 57 | 234 | 3.0 | 7.0 | 0.00 | 0.05 | 0.05 | 91 | 1007.3 |
| 20260507031255 | 57 | 243 | 4.0 | 7.0 | 0.00 | 0.05 | 0.05 | 91 | 1007.2 |
| 20260507030749 | 57 | 244 | 3.0 | 7.0 | 0.00 | 0.05 | 0.05 | 91 | 1007.2 |
| 20260507030248 | 57 | 253 | 4.0 | 9.0 | 0.00 | 0.05 | 0.05 | 91 | 1007.3 |
| 20260507025745 | 57 | 197 | 4.0 | 9.0 | 0.00 | 0.05 | 0.05 | 91 | 1007.2 |
| 20260507025243 | 57 | 230 | 4.0 | 6.0 | 0.00 | 0.05 | 0.05 | 91 | 1007.2 |
| 20260507024739 | 57 | 245 | 3.0 | 6.0 | 0.00 | 0.05 | 0.05 | 91 | 1007.1 |
| 20260507024233 | 57 | 255 | 3.0 | 6.0 | 0.00 | 0.05 | 0.05 | 91 | 1007.1 |
| 20260507023727 | 57 | 212 | 3.0 | 10.0 | 0.00 | 0.05 | 0.05 | 91 | 1007.0 |
| 20260507023222 | 57 | 252 | 4.0 | 10.0 | 0.00 | 0.05 | 0.05 | 91 | 1007.2 |
| 20260507022723 | 57 | 240 | 4.0 | 7.0 | 0.00 | 0.05 | 0.05 | 91 | 1007.0 |
| 20260507022217 | 57 | 279 | 3.0 | 7.0 | 0.00 | 0.05 | 0.05 | 91 | 1007.1 |
| 20260507021716 | 57 | 250 | 3.0 | 8.0 | 0.00 | 0.05 | 0.05 | 91 | 1007.2 |
| 20260507021213 | 57 | 240 | 3.0 | 8.0 | 0.00 | 0.05 | 0.05 | 91 | 1007.3 |
| 20260507020701 | 57 | 226 | 3.0 | 8.0 | 0.00 | 0.05 | 0.05 | 91 | 1007.4 |
| 20260507020201 | 58 | 249 | 3.0 | 8.0 | 0.00 | 0.05 | 0.05 | 91 | 1007.6 |
| 20260507015655 | 57 | 245 | 3.0 | 8.0 | 0.00 | 0.05 | 0.05 | 91 | 1007.7 |
| 20260507015148 | 58 | 178 | 4.0 | 9.0 | 0.00 | 0.05 | 0.05 | 91 | 1007.7 |
| 20260507014646 | 58 | 241 | 4.0 | 10.0 | 0.00 | 0.05 | 0.05 | 91 | 1007.7 |
| 20260507014137 | 58 | 236 | 4.0 | 10.0 | 0.00 | 0.05 | 0.05 | 91 | 1007.6 |
| 20260507013914 | 58 | 238 | 4.0 | 8.0 | 0.01 | 0.05 | 0.05 | 91 | 1007.7 |
| 20260507013126 | 58 | 298 | 5.0 | 8.0 | 0.01 | 0.05 | 0.05 | 91 | 1007.8 |
| 20260507012621 | 58 | 187 | 3.0 | 8.0 | 0.01 | 0.05 | 0.05 | 91 | 1007.9 |
| 20260507012116 | 58 | 240 | 3.0 | 8.0 | 0.01 | 0.05 | 0.05 | 91 | 1007.9 |
| 20260507011615 | 58 | 226 | 4.0 | 9.0 | 0.01 | 0.05 | 0.05 | 91 | 1007.9 |
| 20260507011112 | 58 | 253 | 5.0 | 9.0 | 0.01 | 0.05 | 0.05 | 91 | 1007.7 |
| 20260507010607 | 58 | 261 | 5.0 | 9.0 | 0.02 | 0.05 | 0.05 | 90 | 1007.7 |
| 20260507010105 | 58 | 274 | 4.0 | 9.0 | 0.02 | 0.05 | 0.05 | 90 | 1007.7 |
| 20260507005601 | 58 | 238 | 4.0 | 8.0 | 0.02 | 0.05 | 0.05 | 90 | 1007.8 |
| 20260507005055 | 58 | 239 | 4.0 | 7.0 | 0.02 | 0.05 | 0.05 | 91 | 1007.7 |
| 20260507004556 | 58 | 248 | 5.0 | 10.0 | 0.02 | 0.05 | 0.05 | 91 | 1007.8 |
| 20260507004052 | 58 | 250 | 6.0 | 11.0 | 0.02 | 0.05 | 0.05 | 91 | 1007.8 |
| 20260507003544 | 58 | 233 | 5.0 | 11.0 | 0.01 | 0.04 | 0.04 | 90 | 1007.8 |
| 20260507003037 | 58 | 270 | 5.0 | 10.0 | 0.01 | 0.04 | 0.04 | 90 | 1007.9 |
| 20260507002535 | 58 | 256 | 5.0 | 10.0 | 0.01 | 0.04 | 0.04 | 90 | 1007.8 |
| 20260507002028 | 58 | 245 | 4.0 | 10.0 | 0.02 | 0.04 | 0.04 | 90 | 1007.8 |
| 20260507001520 | 58 | 236 | 5.0 | 10.0 | 0.02 | 0.04 | 0.04 | 90 | 1007.7 |
| 20260507001018 | 58 | 262 | 6.0 | 16.0 | 0.03 | 0.04 | 0.04 | 90 | 1007.7 |
| 20260507000510 | 58 | 239 | 5.0 | 16.0 | 0.02 | 0.03 | 0.03 | 90 | 1007.7 |
| 20260507000004 | 58 | 249 | 5.0 | 14.0 | 0.02 | 0.03 | 0.03 | 90 | 1007.8 |
| 20260506235731 | 58 | 198 | 5.0 | 13.0 | 0.02 | 0.03 | 0.03 | 90 | 1007.6 |
| 20260506235000 | 58 | 197 | 6.0 | 13.0 | 0.02 | 0.03 | 0.03 | 90 | 1007.8 |
| 20260506234731 | 58 | 198 | 6.0 | 13.0 | 0.02 | 0.03 | 0.03 | 90 | 1007.7 |
| 20260506234227 | 58 | 203 | 3.0 | 11.0 | 0.03 | 0.03 | 0.03 | 89 | 1007.9 |
| 20260506233448 | 58 | 236 | 4.0 | 11.0 | 0.03 | 0.03 | 0.03 | 89 | 1008.0 |
| 20260506232944 | 59 | 248 | 4.0 | 11.0 | 0.03 | 0.03 | 0.03 | 89 | 1008.0 |
| 20260506232436 | 59 | 238 | 4.0 | 8.0 | 0.03 | 0.03 | 0.03 | 89 | 1008.0 |
| 20260506231933 | 59 | 245 | 5.0 | 11.0 | 0.02 | 0.02 | 0.02 | 89 | 1008.0 |
| 20260506231426 | 59 | 218 | 4.0 | 10.0 | 0.02 | 0.02 | 0.02 | 89 | 1008.0 |
| 20260506230920 | 59 | 218 | 3.0 | 10.0 | 0.01 | 0.01 | 0.01 | 89 | 1008.0 |
| 20260506230416 | 59 | 231 | 4.0 | 10.0 | 0.01 | 0.01 | 0.01 | 88 | 1008.0 |
| 20260506225916 | 59 | 238 | 4.0 | 10.0 | 0.01 | 0.01 | 0.01 | 88 | 1007.9 |
| 20260506225409 | 59 | 250 | 5.0 | 9.0 | 0.01 | 0.01 | 0.01 | 88 | 1008.0 |
| 20260506224909 | 59 | 219 | 6.0 | 9.0 | 0.01 | 0.01 | 0.01 | 87 | 1008.0 |
| 20260506224405 | 59 | 241 | 5.0 | 9.0 | 0.01 | 0.01 | 0.01 | 87 | 1008.2 |
| 20260506223908 | 59 | 193 | 3.0 | 13.0 | 0.00 | 0.00 | 0.00 | 87 | 1008.5 |
| 20260506223359 | 60 | 198 | 6.0 | 13.0 | 0.00 | 0.00 | 0.00 | 86 | 1008.3 |
| 20260506222855 | 60 | 220 | 4.0 | 9.0 | 0.00 | 0.00 | 0.00 | 86 | 1008.4 |
| 20260506222627 | 60 | 231 | 5.0 | 11.0 | 0.00 | 0.00 | 0.00 | 86 | 1008.4 |
| 20260506221844 | 60 | 253 | 5.0 | 11.0 | 0.00 | 0.00 | 0.00 | 85 | 1008.5 |
| 20260506221336 | 60 | 264 | 6.0 | 9.0 | 0.00 | 0.00 | 0.00 | 85 | 1008.5 |
| 20260506221110 | 61 | 248 | 5.0 | 9.0 | 0.00 | 0.00 | 0.00 | 85 | 1008.5 |
| 20260506220606 | 61 | 248 | 6.0 | 9.0 | 0.00 | 0.00 | 0.00 | 85 | 1008.5 |
| 20260506215826 | 61 | 197 | 5.0 | 9.0 | 0.00 | 0.00 | 0.00 | 85 | 1008.5 |
| 20260506215326 | 61 | 261 | 4.0 | 13.0 | 0.00 | 0.00 | 0.00 | 85 | 1008.6 |
| 20260506214824 | 61 | 245 | 5.0 | 13.0 | 0.00 | 0.00 | 0.00 | 84 | 1008.5 |
| 20260506214316 | 61 | 237 | 5.0 | 14.0 | 0.00 | 0.00 | 0.00 | 84 | 1008.5 |
| 20260506213812 | 61 | 255 | 6.0 | 14.0 | 0.00 | 0.00 | 0.00 | 83 | 1008.5 |
| 20260506213304 | 62 | 221 | 7.0 | 14.0 | 0.00 | 0.00 | 0.00 | 83 | 1008.5 |
| 20260506212800 | 62 | 168 | 7.0 | 14.0 | 0.00 | 0.00 | 0.00 | 83 | 1008.5 |
| 20260506212253 | 62 | 169 | 6.0 | 10.0 | 0.00 | 0.00 | 0.00 | 83 | 1008.8 |
| 20260506211750 | 62 | 252 | 6.0 | 13.0 | 0.00 | 0.00 | 0.00 | 83 | 1008.8 |
| 20260506211242 | 62 | 259 | 5.0 | 13.0 | 0.00 | 0.00 | 0.00 | 83 | 1008.7 |
| 20260506211005 | 62 | 172 | 6.0 | 11.0 | 0.00 | 0.00 | 0.00 | 83 | 1008.8 |
| 20260506210746 | 62 | 172 | 6.0 | 11.0 | 0.00 | 0.00 | 0.00 | 83 | 1008.8 |
| 20260506210237 | 62 | 214 | 6.0 | 12.0 | 0.00 | 0.00 | 0.00 | 84 | 1008.7 |
| 20260506210015 | 61 | 204 | 7.0 | 12.0 | 0.00 | 0.00 | 0.00 | 84 | 1008.8 |
| 20260506205233 | 61 | 259 | 6.0 | 11.0 | 0.00 | 0.00 | 0.00 | 83 | 1009.0 |
| 20260506204728 | 61 | 206 | 6.0 | 13.0 | 0.00 | 0.00 | 0.00 | 84 | 1008.9 |
| 20260506204223 | 61 | 212 | 6.0 | 15.0 | 0.00 | 0.00 | 0.00 | 84 | 1008.9 |
| 20260506203955 | 61 | 271 | 6.0 | 16.0 | 0.00 | 0.00 | 0.00 | 84 | 1009.0 |
| 20260506203218 | 61 | 252 | 6.0 | 16.0 | 0.00 | 0.00 | 0.00 | 84 | 1009.0 |
| 20260506202718 | 61 | 224 | 6.0 | 16.0 | 0.00 | 0.00 | 0.00 | 84 | 1009.1 |
| 20260506202237 | 62 | 177 | 4.0 | 9.0 | 0.00 | 0.00 | 0.00 | 83 | 1009.1 |
| 20260506202229 | 62 | 169 | 5.0 | 16.0 | 0.00 | 0.00 | 0.00 | 83 | 1009.0 |
| 20260506201201 | 62 | 246 | 5.0 | 10.0 | 0.00 | 0.00 | 0.00 | 81 | 1009.2 |
| 20260506200700 | 62 | 242 | 6.0 | 12.0 | 0.00 | 0.00 | 0.00 | 80 | 1009.3 |
| 20260506200153 | 63 | 230 | 7.0 | 12.0 | 0.00 | 0.00 | 0.00 | 79 | 1009.3 |
| 20260506195650 | 63 | 242 | 7.0 | 12.0 | 0.00 | 0.00 | 0.00 | 77 | 1009.3 |
| 20260506195142 | 64 | 237 | 5.0 | 18.0 | 0.00 | 0.00 | 0.00 | 76 | 1009.4 |
| 20260506194638 | 64 | 247 | 7.0 | 18.0 | 0.00 | 0.00 | 0.00 | 75 | 1009.4 |
| 20260506194131 | 65 | 259 | 8.0 | 15.0 | 0.00 | 0.00 | 0.00 | 75 | 1009.4 |
| 20260506193626 | 65 | 252 | 6.0 | 16.0 | 0.00 | 0.00 | 0.00 | 75 | 1009.4 |
| 20260506193120 | 65 | 232 | 7.0 | 22.0 | 0.00 | 0.00 | 0.00 | 75 | 1009.5 |
| 20260506192616 | 65 | 203 | 6.0 | 22.0 | 0.00 | 0.00 | 0.00 | 75 | 1009.5 |
| 20260506192108 | 65 | 198 | 6.0 | 15.0 | 0.00 | 0.00 | 0.00 | 74 | 1009.4 |
| 20260506191604 | 65 | 234 | 8.0 | 18.0 | 0.00 | 0.00 | 0.00 | 74 | 1009.4 |
| 20260506191056 | 65 | 204 | 8.0 | 18.0 | 0.00 | 0.00 | 0.00 | 74 | 1009.3 |
| 20260506190553 | 65 | 228 | 7.0 | 15.0 | 0.00 | 0.00 | 0.00 | 74 | 1009.3 |
| 20260506190045 | 65 | 263 | 7.0 | 16.0 | 0.00 | 0.00 | 0.00 | 74 | 1009.2 |
| 20260506185820 | 65 | 254 | 9.0 | 16.0 | 0.00 | 0.00 | 0.00 | 73 | 1009.4 |
| 20260506185034 | 65 | 204 | 7.0 | 18.0 | 0.00 | 0.00 | 0.00 | 73 | 1009.3 |
| 20260506184530 | 65 | 224 | 9.0 | 18.0 | 0.00 | 0.00 | 0.00 | 73 | 1009.4 |
| 20260506184026 | 66 | 205 | 6.0 | 14.0 | 0.00 | 0.00 | 0.00 | 73 | 1009.6 |
| 20260506183524 | 66 | 249 | 9.0 | 14.0 | 0.00 | 0.00 | 0.00 | 72 | 1009.6 |
| 20260506183254 | 66 | 263 | 7.0 | 21.0 | 0.00 | 0.00 | 0.00 | 72 | 1009.4 |
| 20260506182520 | 66 | 167 | 8.0 | 25.0 | 0.00 | 0.00 | 0.00 | 72 | 1009.6 |